IW1RID-3 Weather Reports


Display with metric or nautical units.
time (UTC)temp
F
wind
direction
speed
MPH
gust
MPH
rain 1hr
in
rain 24hr
in
rain mn
in
humidity
%
barometer
mb
20260507125144 72 0.0 0.0 0.00 0.00 0.00 51 1072.1
20260507123134 69 0.0 0.0 0.00 0.00 0.00 51 1071.8
20260507121126 68 0.0 0.0 0.00 0.00 0.00 58 1071.4
20260507115119 68 0.0 0.0 0.00 0.00 0.00 60 1071.3
20260507113113 67 0.0 0.0 0.00 0.00 0.00 62 1071.4
20260507111108 68 0.0 0.0 0.00 0.00 0.00 62 1071.5
20260507105102 67 0.0 0.0 0.00 0.00 0.00 64 1071.5
20260507103056 67 0.0 0.0 0.00 0.00 0.00 66 1071.6
20260507101052 67 0.0 0.0 0.00 0.00 0.00 67 1071.6
20260507095045 66 0.0 0.0 0.00 0.00 0.00 70 1071.7
20260507093037 65 0.0 0.0 0.00 0.00 0.00 66 1071.5
20260507091030 65 0.0 0.0 0.00 0.00 0.00 69 1071.4
20260507083019 65 0.0 0.0 0.00 0.00 0.00 68 1071.2
20260507081015 63 0.0 0.0 0.00 0.00 0.00 69 1071.0
20260507075010 62 0.0 0.0 0.00 0.00 0.00 71 1071.0
20260507073004 60 0.0 0.0 0.00 0.00 0.00 70 1071.2
20260507071000 58 0.0 0.0 0.00 0.00 0.00 72 1071.0
20260507064954 56 0.0 0.0 0.00 0.00 0.00 78 1070.6
20260507062949 55 0.0 0.0 0.00 0.00 0.00 77 1070.5
20260507060943 52 0.0 0.0 0.00 0.00 0.00 84 1070.4
20260507054938 52 0.0 0.0 0.00 0.00 0.00 85 1070.3
20260507052932 51 0.0 0.0 0.00 0.00 0.00 87 1070.0
20260507050927 51 0.0 0.0 0.00 0.00 0.00 88 1069.8
20260507044922 50 0.0 0.0 0.00 0.00 0.00 89 1069.4
20260507042918 51 0.0 0.0 0.00 0.00 0.00 87 1069.2
20260507040911 50 0.0 0.0 0.00 0.00 0.00 90 1069.2
20260507034906 51 0.0 0.0 0.00 0.00 0.00 89 1069.2
20260507032901 51 0.0 0.0 0.00 0.00 0.00 89 1068.9
20260507030857 51 0.0 0.0 0.00 0.00 0.00 89 1068.9
20260507024850 52 0.0 0.0 0.00 0.00 0.00 87 1068.8
20260507022845 52 0.0 0.0 0.00 0.00 0.00 88 1068.7
20260507020840 52 0.0 0.0 0.00 0.00 0.00 86 1068.6
20260507014835 53 0.0 0.0 0.00 0.00 0.00 84 1068.4
20260507012830 53 0.0 0.0 0.00 0.00 0.00 85 1068.2
20260507010824 52 0.0 0.0 0.00 0.00 0.00 88 1068.5
20260507004819 54 0.0 0.0 0.00 0.00 0.00 83 1068.4
20260507002815 54 0.0 0.0 0.00 0.00 0.00 85 1068.4
20260507000808 55 0.0 0.0 0.00 0.00 0.00 83 1068.3
20260506232755 54 0.0 0.0 0.00 0.00 0.00 87 1068.4
20260506230749 56 0.0 0.0 0.00 0.00 0.00 84 1068.4
20260506224742 56 0.0 0.0 0.00 0.00 0.00 84 1068.4
20260506222737 56 0.0 0.0 0.00 0.00 0.00 82 1068.1
20260506220729 56 0.0 0.0 0.00 0.00 0.00 85 1068.0
20260506214723 58 0.0 0.0 0.00 0.00 0.00 80 1067.9
20260506212717 58 0.0 0.0 0.00 0.00 0.00 79 1067.9
20260506210712 57 0.0 0.0 0.00 0.00 0.00 85 1068.0
20260506204706 58 0.0 0.0 0.00 0.00 0.00 82 1068.0
20260506202701 58 0.0 0.0 0.00 0.00 0.00 82 1067.9
20260506200656 59 0.0 0.0 0.00 0.00 0.00 79 1067.7
20260506194652 60 0.0 0.0 0.00 0.00 0.00 79 1067.5
20260506190641 64 0.0 0.0 0.00 0.00 0.00 71 1066.8
20260506184636 64 0.0 0.0 0.00 0.00 0.00 69 1066.5
20260506184547 64 0.0 0.0 0.00 0.00 0.00 69 1066.5
20260506182541 65 0.0 0.0 0.00 0.00 0.00 69 1066.4
20260506180535 66 0.0 0.0 0.00 0.00 0.00 64 1066.3
20260506172525 68 0.0 0.0 0.00 0.00 0.00 61 1066.4
20260506170518 68 0.0 0.0 0.00 0.00 0.00 60 1066.2
20260506164513 73 0.0 0.0 0.00 0.00 0.00 52 1066.4
20260506162509 73 0.0 0.0 0.00 0.00 0.00 51 1066.3
20260506160503 71 0.0 0.0 0.00 0.00 0.00 53 1066.5
20260506154457 73 0.0 0.0 0.00 0.00 0.00 50 1066.5
20260506152451 73 0.0 0.0 0.00 0.00 0.00 49 1066.5
20260506150446 74 0.0 0.0 0.00 0.00 0.00 49 1066.8
20260506144440 74 0.0 0.0 0.00 0.00 0.00 51 1067.0
20260506142435 71 0.0 0.0 0.00 0.00 0.00 56 1067.4
20260506140429 69 0.0 0.0 0.00 0.00 0.00 61 1066.9
20260506134424 70 0.0 0.0 0.00 0.00 0.00 60 1067.6
20260506132416 69 0.0 0.0 0.00 0.00 0.00 63 1067.8